[[{"header":{"parameterUnit":"m.s-1","parameterCategory":1,"la1":30.2991,"la2":30.254,"lo1":-89.0895,"lo2":-89.0444,"dy":0.0017,"dx":0.0017,"nx":28,"ny":28,"refTime":"2025-03-27T03:00:00:Z","depth":0,"parameterNumber":2,"parameterNumberName":"U-component_of_WINDS"},"data":[0,0,0,0,0,0,0,0,0,0,0,0,0,0,0,0,0,0,0,0,0,0,0,0,0,0,0,0,0,0,0,0,0,0,0,0,0,0,0,0,0,0,0,0,0,0,0,0,0,0,0,0,0,0,0,0,0,0,-5.1152,-5.1153,0,-5.1241,-5.1242,-5.1243,-5.1172,-5.1169,-5.1166,-5.1163,-5.1254,-5.1259,-5.1264,0,0,0,0,0,0,0,0,0,0,0,0,0,-5.0923,-5.0927,-5.1152,-5.1153,-5.1154,-5.1241,-5.1242,-5.1243,-5.1172,-5.1168,-5.1165,-5.1161,-5.1252,-5.1259,-5.1265,0,0,0,0,0,0,0,0,0,0,0,0,0,-5.1018,-5.0929,-5.1152,-5.1129,-5.1128,-5.124,-5.1242,-5.1243,-5.1173,-5.1168,-5.1164,-5.116,-5.125,-5.1258,-5.1266,-5.1405,0,0,-5.129,-5.1293,0,0,0,0,0,0,0,0,-5.1013,-5.1027,-5.1132,-5.1131,-5.113,-5.1191,-5.1194,-5.1298,-5.1174,-5.1156,-5.1163,-5.1157,-5.1237,-5.1245,-5.1272,-5.1409,-5.1413,-5.1291,-5.1295,-5.1299,-5.1301,0,0,0,0,0,0,0,-5.1006,-5.1022,-5.1187,-5.1133,-5.1132,-5.1115,-5.1124,-5.1214,-5.1221,-5.1157,-5.1152,-5.1164,-5.1235,-5.1265,-5.1274,-5.1415,-5.129,-5.1297,-5.1302,-5.1305,-5.1671,-5.1676,0,0,0,0,0,0,-5.1002,-5.1017,-5.1184,-5.119,-5.1059,-5.1123,-5.1133,-5.1176,-5.122,-5.1222,-5.1167,-5.116,-5.1253,-5.1265,-5.1277,-5.1442,-5.1299,-5.1306,-5.1311,-5.1666,-5.1672,-5.1678,0,0,0,0,0,0,-5.0997,-5.1017,-5.1181,-5.1102,-5.1122,-5.1132,-5.1181,-5.118,-5.1209,-5.1227,-5.1228,-5.1196,-5.125,-5.1265,-5.1374,-5.1444,-5.131,-5.1317,-5.166,-5.1668,-5.1675,-5.1774,0,0,0,0,0,0,-5.0991,-5.1016,-5.1069,-5.1104,-5.1126,-5.1276,-5.1185,-5.1185,-5.1223,-5.1214,-5.1254,-5.1257,-5.1248,-5.1362,-5.1382,-5.1452,-5.1323,-5.1654,-5.1664,-5.1673,-5.1765,-5.1784,-5.1801,0,0,0,0,0,-5.0983,-5.1093,-5.1072,-5.1092,-5.1192,-5.128,-5.1293,-5.1281,-5.1229,-5.1282,-5.1294,-5.1255,-5.1434,-5.1374,-5.1395,-5.1469,-5.165,-5.1661,-5.1672,-5.1757,-5.178,-5.1801,0,0,0,0,0,0,-5.1066,-5.1097,-5.1074,-5.1199,-5.1238,-5.1268,-5.1334,-5.1306,-5.1361,-5.135,-5.1333,-5.1343,-5.1456,-5.1474,-5.1407,-5.1607,-5.1533,-5.1549,-5.1591,-5.1613,-5.1631,-5.1623,-5.1329,0,0,0,0,0,-5.1099,-5.1167,-5.1191,-5.13,-5.132,-5.1325,-5.1362,-5.135,-5.1389,-5.1405,-5.1425,-5.1465,-5.153,-5.1573,-5.1634,-5.1768,-5.1775,-5.183,-5.1848,-5.1863,-5.1876,-5.1948,-5.1972,-5.1715,-5.1715,-5.1714,0,0,-5.1167,-5.1193,-5.1237,-5.1317,-5.1345,-5.1417,-5.1339,-5.1418,-5.1471,-5.1417,-5.152,-5.1537,-5.158,-5.1702,-5.1756,-5.172,-5.1949,-5.1877,-5.1889,-5.1894,-5.1962,-5.1986,-5.2008,-5.1722,-5.1721,-5.172,0,0,-5.1327,-5.1355,-5.1447,-5.1478,-5.1522,-5.1524,-5.1547,-5.1582,-5.1591,-5.1694,-5.1656,-5.1719,-5.1832,-5.1864,-5.1895,-5.2071,-5.2037,-5.2091,-5.2185,-5.2255,-5.2276,-5.2293,-5.2355,-5.2377,-5.2105,-5.2105,-5.2106,0,-5.1406,-5.1512,-5.1498,-5.158,-5.1617,-5.1572,-5.1666,-5.1696,-5.1759,-5.1785,-5.1744,-5.1884,-5.191,-5.2039,-5.2082,-5.2109,-5.2134,-5.2085,-5.2274,-5.2292,-5.2308,-5.2366,-5.239,-5.2112,-5.2111,-5.211,-5.211,0,-5.1607,-5.1682,-5.1751,-5.1812,-5.1857,-5.1944,-5.1944,-5.1991,-5.1975,-5.1982,-5.2088,-5.2119,-5.2185,-5.2215,-5.22,-5.2342,-5.2318,-5.2276,-5.2201,-5.2339,-5.2393,-5.2416,-5.212,-5.2118,-5.2116,-5.2115,0,0,-5.182,-5.1873,-5.1898,-5.1926,-5.1972,-5.2029,-5.2116,-5.2181,-5.2221,-5.2266,-5.2337,-5.2435,-5.2397,-5.2432,-5.2421,-5.2484,-5.2619,-5.2434,-5.2435,-5.2466,-5.2776,-5.2806,-5.2832,-5.2599,-5.2603,-5.2606,-5.2772,0,-5.1981,-5.213,-5.2121,-5.2261,-5.2329,-5.229,-5.2365,-5.2402,-5.2412,-5.2471,-5.2482,-5.2551,-5.2496,-5.2517,-5.2577,-5.259,-5.2681,-5.2578,-5.2664,-5.2667,-5.2652,-5.286,-5.2892,-5.3047,-5.2793,-5.2797,-5.28,0,-5.2188,-5.2241,-5.2388,-5.2424,-5.2453,-5.252,-5.2579,-5.2637,-5.2679,-5.2682,-5.2723,-5.2702,-5.2789,-5.2715,-5.2835,-5.2766,-5.2801,-5.2813,-5.2819,-5.2824,-5.274,-5.287,-5.3096,-5.3118,-5.2833,-5.2831,-5.2828,0,-5.2327,-5.2434,-5.2536,-5.2561,-5.2606,-5.2655,-5.2676,-5.2713,-5.2753,-5.2805,-5.2831,-5.2893,-5.2927,-5.2975,-5.2972,-5.2918,-5.3094,-5.302,-5.3098,-5.3099,-5.3135,-5.3132,-5.3368,-5.3162,-5.3161,-5.3161,-5.316,0,-5.2506,-5.2598,-5.2598,-5.2661,-5.2762,-5.2752,-5.2852,-5.2869,-5.2903,-5.2968,-5.2938,-5.3,-5.2993,-5.3056,-5.3054,-5.3154,-5.317,-5.3174,-5.3172,-5.3175,-5.3175,-5.3196,-5.3185,-5.3167,-5.3166,-5.3164,-5.3163,0,-5.2677,-5.2681,-5.2789,-5.2824,-5.2835,-5.2908,-5.2938,-5.2998,-5.3006,-5.3089,-5.3107,-5.312,-5.3192,-5.3195,-5.3278,-5.3277,-5.3398,-5.3385,-5.3383,-5.338,-5.3458,-5.345,-5.3714,-5.3748,-5.3522,-5.3524,-5.3526,0,-5.279,-5.2859,-5.2902,-5.2943,-5.2967,-5.3035,-5.3075,-5.3068,-5.3112,-5.3166,-5.3219,-5.3288,-5.3343,-5.3461,-5.3477,-5.3541,-5.3528,-5.3617,-5.3537,-5.3539,-5.3528,-5.3523,-5.3529,-5.3631,-5.3634,-5.3636,-5.3637,0,-5.299,-5.2989,-5.3048,-5.3109,-5.3158,-5.3206,-5.325,-5.3286,-5.3284,-5.3335,-5.3408,-5.3451,-5.3537,-5.3606,-5.3668,-5.369,-5.3664,-5.3663,-5.3684,-5.3687,-5.3682,-5.3684,-5.3423,-5.3656,-5.3654,-5.3653,-5.3652,-5.3651,-5.3134,-5.3193,-5.3232,-5.33,-5.3333,-5.3375,-5.3432,-5.3448,-5.3509,-5.3577,-5.357,-5.3652,-5.3693,-5.3774,-5.3802,-5.3866,-5.3835,-5.3866,-5.3874,-5.3881,-5.3889,-5.3674,-5.3877,-5.3877,-5.3876,-5.3876,-5.3876,0,-5.333,-5.3354,-5.3416,-5.3479,-5.3533,-5.3504,-5.3552,-5.3598,-5.367,-5.3711,-5.3766,-5.3851,-5.3918,-5.3941,-5.4007,-5.4054,-5.4043,-5.4071,-5.4066,-5.4072,-5.3913,-5.3887,-5.4078,-5.4078,-5.4078,-5.4078,-5.4078,-5.4078,-5.3439,-5.3538,-5.3542,-5.3657,-5.3681,-5.376,-5.379,-5.3829,-5.3861,-5.3957,-5.4013,-5.4027,-5.4061,-5.4129,-5.419,-5.4195,-5.422,-5.4253,-5.4253,-5.4104,-5.4083,-5.4063,-5.4039,-5.4259,-5.4259,-5.4406,-5.4407,-5.4408]},{"header":{"parameterUnit":"m.s-1","parameterCategory":1,"la1":30.2991,"la2":30.254,"lo1":-89.0895,"lo2":-89.0444,"dy":0.0017,"dx":0.0017,"nx":28,"ny":28,"refTime":"2025-03-27T03:00:00:Z","depth":0,"parameterNumber":3,"parameterNumberName":"V-component_of_WINDS"},"data":[0,0,0,0,0,0,0,0,0,0,0,0,0,0,0,0,0,0,0,0,0,0,0,0,0,0,0,0,0,0,0,0,0,0,0,0,0,0,0,0,0,0,0,0,0,0,0,0,0,0,0,0,0,0,0,0,0,0,2.2894,2.2895,0,2.2952,2.2953,2.2954,2.2933,2.2932,2.2931,2.2929,2.299,2.2992,2.2995,0,0,0,0,0,0,0,0,0,0,0,0,0,2.2767,2.277,2.2894,2.2895,2.2895,2.2952,2.2953,2.2954,2.2933,2.2932,2.293,2.2929,2.2989,2.2992,2.2995,0,0,0,0,0,0,0,0,0,0,0,0,0,2.2824,2.2771,2.2894,2.2892,2.2893,2.2952,2.2953,2.2954,2.2934,2.2932,2.293,2.2928,2.2987,2.2992,2.2996,2.306,0,0,2.3009,2.301,0,0,0,0,0,0,0,0,2.2821,2.2828,2.2892,2.2892,2.2893,2.2933,2.293,2.299,2.2934,2.2918,2.2929,2.2927,2.2972,2.2978,2.2993,2.3063,2.3066,2.3009,2.3011,2.3013,2.3014,0,0,0,0,0,0,0,2.2817,2.2826,2.2917,2.2893,2.2893,2.2889,2.2895,2.2941,2.2955,2.2919,2.2918,2.2925,2.2972,2.2989,2.2994,2.3067,2.3009,2.3013,2.3015,2.3017,2.3196,2.3198,0,0,0,0,0,0,2.2812,2.2823,2.2915,2.2919,2.2851,2.2893,2.29,2.2922,2.2955,2.2958,2.2927,2.2924,2.2983,2.2989,2.2996,2.3076,2.3013,2.3017,2.302,2.3194,2.3196,2.3199,0,0,0,0,0,0,2.281,2.2821,2.2913,2.287,2.2882,2.2897,2.2923,2.2925,2.2941,2.2961,2.2963,2.2941,2.2981,2.299,2.3045,2.3078,2.3019,2.3023,2.3191,2.3194,2.3198,2.3235,0,0,0,0,0,0,2.2806,2.282,2.2844,2.2871,2.2884,2.296,2.2925,2.2927,2.2948,2.2945,2.2975,2.2977,2.2981,2.3039,2.3049,2.3083,2.3026,2.3188,2.3193,2.3196,2.3231,2.3239,2.3246,0,0,0,0,0,2.2802,2.2852,2.2845,2.2857,2.2915,2.2962,2.297,2.2972,2.2951,2.2976,2.2989,2.2977,2.3072,2.3045,2.3056,2.3091,2.3186,2.3191,2.3196,2.3228,2.3238,2.3246,0,0,0,0,0,0,2.2828,2.2855,2.2848,2.2909,2.2933,2.2959,2.299,2.2982,2.3014,2.301,2.3011,2.3018,2.3075,2.3088,2.3057,2.3157,2.3126,2.3134,2.3146,2.3156,2.3164,2.316,2.303,0,0,0,0,0,2.284,2.2876,2.2899,2.295,2.2963,2.2974,2.2995,2.2995,2.3021,2.3031,2.3048,2.3074,2.311,2.3133,2.3167,2.3233,2.324,2.3263,2.327,2.3276,2.3283,2.3321,2.3332,2.3215,2.3215,2.3215,0,0,2.2867,2.2887,2.2909,2.2956,2.2975,2.3013,2.2983,2.3024,2.3053,2.3037,2.3091,2.3104,2.3133,2.3194,2.3222,2.3207,2.3317,2.3283,2.3288,2.3291,2.3328,2.3339,2.3349,2.3219,2.3218,2.3218,0,0,2.2936,2.2953,2.2999,2.3019,2.3049,2.3057,2.3068,2.3095,2.3103,2.3157,2.3147,2.3181,2.3243,2.3265,2.3284,2.3363,2.3354,2.3374,2.3415,2.3452,2.3461,2.3469,2.3499,2.351,2.3381,2.3381,2.3381,0,2.2965,2.3022,2.3023,2.3066,2.3088,2.3076,2.3123,2.3143,2.3182,2.3198,2.318,2.3259,2.3277,2.3345,2.3364,2.3379,2.3394,2.3371,2.3459,2.3468,2.3475,2.3504,2.3515,2.3383,2.3383,2.3383,2.3382,0,2.3058,2.3098,2.3131,2.317,2.3195,2.324,2.3249,2.3275,2.3273,2.3283,2.3339,2.3361,2.3401,2.3417,2.3415,2.3484,2.3475,2.3458,2.3428,2.3489,2.3516,2.3527,2.3387,2.3386,2.3385,2.3384,0,0,2.3144,2.3185,2.3197,2.3216,2.3248,2.328,2.3324,2.3363,2.3386,2.3414,2.3453,2.3506,2.3492,2.3514,2.3515,2.3547,2.3612,2.3527,2.3528,2.3544,2.3692,2.3705,2.3718,2.3605,2.3607,2.3609,2.369,0,2.3217,2.3296,2.3299,2.3371,2.3409,2.34,2.3439,2.3464,2.3475,2.3509,2.3521,2.356,2.3538,2.3551,2.3583,2.3597,2.3642,2.3591,2.3643,2.3645,2.3637,2.3732,2.3745,2.3821,2.3701,2.3702,2.3704,0,2.3312,2.3344,2.342,2.345,2.3466,2.3501,2.3538,2.3571,2.3599,2.3605,2.3631,2.3628,2.3675,2.3642,2.3709,2.3675,2.3696,2.3707,2.371,2.3715,2.3679,2.3742,2.3845,2.3857,2.372,2.3719,2.3718,0,2.337,2.3431,2.3486,2.3502,2.3537,2.3562,2.3578,2.3605,2.3629,2.3662,2.3678,2.3715,2.3736,2.3766,2.3773,2.3749,2.3841,2.3808,2.3848,2.3848,2.3869,2.3868,2.3979,2.388,2.388,2.388,2.388,0,2.3451,2.3499,2.3512,2.3546,2.36,2.3604,2.3657,2.3671,2.3696,2.3733,2.3726,2.3761,2.3768,2.3805,2.3811,2.3867,2.3875,2.3883,2.3884,2.3884,2.3884,2.3899,2.3895,2.3883,2.3882,2.3882,2.3881,0,2.3525,2.3536,2.3595,2.3624,2.3632,2.3671,2.3696,2.3729,2.3739,2.3787,2.3798,2.3815,2.3858,2.3868,2.3919,2.3924,2.399,2.3985,2.3981,2.3981,2.4021,2.4018,2.4147,2.4165,2.4054,2.4055,2.4055,0,2.3577,2.3614,2.3647,2.3672,2.3689,2.3728,2.3753,2.3759,2.3785,2.3822,2.3851,2.3894,2.3928,2.3998,2.4015,2.4055,2.4053,2.4095,2.4058,2.4058,2.4056,2.4054,2.4059,2.4102,2.4104,2.4105,2.4105,0,2.3669,2.3673,2.3709,2.3748,2.3778,2.3809,2.3838,2.3858,2.3869,2.3899,2.3943,2.397,2.4023,2.4066,2.4107,2.4124,2.4117,2.4117,2.4129,2.413,2.4126,2.4131,2.4002,2.4114,2.4113,2.4112,2.4112,2.4112,2.3735,2.3768,2.3798,2.3839,2.3861,2.3889,2.3923,2.3938,2.3975,2.4019,2.402,2.4069,2.4099,2.4153,2.4172,2.4212,2.4199,2.4215,2.422,2.4224,2.4229,2.4119,2.4219,2.4218,2.4218,2.4218,2.4218,0,2.3829,2.3848,2.3885,2.3927,2.396,2.395,2.3983,2.4011,2.4054,2.4083,2.4117,2.417,2.4212,2.4233,2.4275,2.4303,2.4301,2.4314,2.4313,2.4317,2.4237,2.4223,2.4315,2.4315,2.4315,2.4315,2.4315,2.4315,2.3882,2.3938,2.3946,2.4014,2.4032,2.4081,2.41,2.4127,2.4149,2.4208,2.4244,2.4257,2.4283,2.4328,2.4366,2.4372,2.4388,2.4403,2.4407,2.4332,2.4322,2.4313,2.4301,2.4406,2.4407,2.4485,2.4485,2.4486]}]]